Date String (YYYY-MM-DD hh:mm:ss) UTC,Instrument flags,absolute air pressure of the measurement (hPa),sample flow rate (lpm),inlet stack bypass flow (lpm),air temperature of the measurement (°C),ambient temperature measured by the external sensor (°C),aerosol sample conditioner tube jacket temperature (°C),OPC LED temperature (°C),internal box temperature (°C),relative humidity of the measurement (%),span deviation,mass concentration of particles derived from Lorenz-Mie calculation of OPC scattering (μg/m³),mass concentration of particles derived from Lorenz-Mie calculation of OPC scattering (μg/m³),mass concentration of particles derived from Lorenz-Mie calculation of OPC scattering (μg/m³)
DateTimeUTC,F1_M11,P_M11,Q1_M11,Q2_M11,T1_M11,T2_M11,T3_M11,T4_M11,T5_M11,U1_M11,ZSPAN_M11,X2_M11,X0_M11,X1_M11
2023-07-03 04:00:00,SystemResetWarning,0832.8,5.00,000.00,029.1,027.7,000.0,037.5,030.8,25.7,0000.0,0005.12,0012.94,0004.47
2023-07-03 04:01:00,SystemResetWarning,0832.7,5.00,000.00,029.1,027.9,000.0,037.6,030.8,25.4,0000.0,0005.11,0012.04,0004.49
2023-07-03 04:02:00,SystemResetWarning,0832.8,5.00,000.00,029.2,028.0,000.0,037.6,030.9,25.4,0000.0,0005.11,0011.87,0004.52
2023-07-03 04:03:00,SystemResetWarning,0832.8,4.99,000.00,029.2,027.1,000.0,037.5,030.9,25.3,0000.0,0005.12,0011.97,0004.54
2023-07-03 04:04:00,SystemResetWarning,0832.8,4.99,000.00,029.2,025.6,000.0,037.4,030.7,25.6,0000.0,0005.12,0012.00,0004.55
2023-07-03 04:05:00,SystemResetWarning,0832.7,5.02,000.00,029.1,025.2,000.0,037.4,030.4,25.4,0000.0,0005.11,0012.21,0004.55
2023-07-03 04:06:00,SystemResetWarning,0832.8,5.01,000.00,029.0,025.5,000.0,037.4,030.3,26.1,0000.0,0005.10,0011.98,0004.57
2023-07-03 04:07:00,SystemResetWarning,0832.8,5.00,000.00,029.0,025.9,000.0,037.4,030.3,26.1,0000.0,0005.12,0011.53,0004.59
2023-07-03 04:08:00,SystemResetWarning,0832.8,5.00,000.00,029.0,026.4,000.0,037.4,030.4,25.8,0000.0,0005.17,0011.52,0004.61
2023-07-03 04:09:00,SystemResetWarning,0832.9,4.98,000.00,029.0,026.7,000.0,037.5,030.5,26.0,0000.0,0005.22,0010.94,0004.65
2023-07-03 04:10:00,SystemResetWarning,0833.2,5.01,000.00,029.0,027.1,000.0,037.5,030.6,26.0,0000.0,0005.26,0009.82,0004.69
2023-07-03 04:11:00,SystemResetWarning,0833.1,5.00,000.00,029.0,027.3,000.0,037.5,030.7,25.5,0000.0,0005.31,0009.99,0004.71
2023-07-03 04:12:00,SystemResetWarning,0832.9,5.00,000.00,029.1,027.6,000.0,037.5,030.7,25.8,0000.0,0005.30,0010.01,0004.70
2023-07-03 04:13:00,SystemResetWarning,0833.0,4.99,000.00,029.1,027.8,000.0,037.5,030.8,26.2,0000.0,0005.29,0010.01,0004.70
2023-07-03 04:14:00,SystemResetWarning,0832.9,5.00,000.00,029.2,027.9,000.0,037.6,030.9,26.3,0000.0,0005.31,0009.93,0004.72
2023-07-03 04:15:00,SystemResetWarning,0833.0,5.00,000.00,029.2,028.0,000.0,037.6,030.9,26.0,0000.0,0005.33,0010.30,0004.74
2023-07-03 04:16:00,SystemResetWarning,0833.1,4.99,000.00,029.2,026.8,000.0,037.5,030.8,26.2,0000.0,0005.36,0010.26,0004.76
2023-07-03 04:17:00,SystemResetWarning,0833.0,5.01,000.00,029.2,025.5,000.0,037.4,030.6,25.7,0000.0,0005.39,0010.29,0004.77
2023-07-03 04:18:00,SystemResetWarning,0833.0,5.00,000.00,029.1,025.3,000.0,037.4,030.4,25.8,0000.0,0005.42,0010.62,0004.79
2023-07-03 04:19:00,SystemResetWarning,0832.9,5.01,000.00,029.0,025.6,000.0,037.4,030.3,25.6,0000.0,0005.43,0011.19,0004.81
2023-07-03 04:20:00,SystemResetWarning,0833.1,5.00,000.00,029.0,026.0,000.0,037.4,030.4,26.2,0000.0,0005.41,0012.04,0004.81
2023-07-03 04:21:00,SystemResetWarning,0833.4,5.00,000.00,029.0,026.4,000.0,037.5,030.5,25.8,0000.0,0005.38,0012.24,0004.80
2023-07-03 04:22:00,SystemResetWarning,0833.4,5.00,000.00,029.0,026.8,000.0,037.5,030.5,25.4,0000.0,0005.31,0011.76,0004.79
2023-07-03 04:23:00,SystemResetWarning,0833.1,5.00,000.00,029.0,027.1,000.0,037.5,030.6,25.9,0000.0,0005.33,0012.10,0004.78
2023-07-03 04:24:00,SystemResetWarning,0832.9,4.99,000.00,029.1,027.4,000.0,037.5,030.7,25.3,0000.0,0005.37,0012.68,0004.76
2023-07-03 04:25:00,SystemResetWarning,0833.0,4.99,000.00,029.1,027.6,000.0,037.5,030.8,25.8,0000.0,0005.34,0013.01,0004.74
2023-07-03 04:26:00,SystemResetWarning,0833.0,5.00,000.00,029.1,027.8,000.0,037.5,030.8,25.4,0000.0,0005.32,0012.66,0004.73
2023-07-03 04:27:00,SystemResetWarning,0832.9,5.01,000.00,029.2,028.0,000.0,037.6,030.9,24.9,0000.0,0005.31,0012.42,0004.73
2023-07-03 04:28:00,SystemResetWarning,0833.2,5.00,000.00,029.2,028.1,000.0,037.6,030.9,25.1,-000.1,0005.30,0012.41,0004.73
2023-07-03 04:29:00,SystemResetWarning,0833.3,4.98,000.00,029.3,027.5,000.0,037.6,030.9,25.5,-001.0,0005.27,0012.50,0004.71
2023-07-03 04:30:00,SystemResetWarning,0833.2,5.01,000.00,029.2,025.7,000.0,037.4,030.7,25.6,-001.9,0005.22,0012.38,0004.68
2023-07-03 04:31:00,SystemResetWarning,0833.5,5.00,000.00,029.1,025.2,000.0,037.4,030.5,25.9,-000.7,0005.23,0011.92,0004.66
2023-07-03 04:32:00,SystemResetWarning,0833.4,5.01,000.00,029.0,025.4,000.0,037.4,030.3,26.1,-000.3,0005.28,0012.33,0004.66
2023-07-03 04:33:00,SystemResetWarning,0832.9,4.99,000.00,029.0,025.8,000.0,037.4,030.4,26.8,-000.7,0005.34,0013.23,0004.67
2023-07-03 04:34:00,SystemResetWarning,0833.0,4.99,000.00,029.0,026.2,000.0,037.5,030.4,26.9,-000.2,0005.33,0013.41,0004.67
2023-07-03 04:35:00,SystemResetWarning,0833.0,5.01,000.00,029.0,026.6,000.0,037.5,030.5,27.3,0000.0,0005.29,0013.15,0004.69
2023-07-03 04:36:00,SystemResetWarning,0833.0,5.01,000.00,029.0,027.0,000.0,037.5,030.6,25.6,-000.0,0005.31,0013.09,0004.70
2023-07-03 04:37:00,SystemResetWarning,0833.1,5.00,000.00,029.0,027.2,000.0,037.5,030.7,25.7,0000.8,0005.32,0012.88,0004.70
2023-07-03 04:38:00,SystemResetWarning,0833.1,5.00,000.00,029.1,027.5,000.0,037.5,030.7,26.4,0001.0,0005.31,0012.90,0004.71
2023-07-03 04:39:00,SystemResetWarning,0833.1,5.00,000.00,029.1,027.7,000.0,037.6,030.8,26.5,0000.7,0005.31,0013.02,0004.71
2023-07-03 04:40:00,SystemResetWarning,0833.3,5.00,000.00,029.1,027.8,000.0,037.6,030.8,25.7,0000.0,0005.33,0012.99,0004.71
2023-07-03 04:41:00,SystemResetWarning,0833.1,5.00,000.00,029.2,028.0,000.0,037.6,030.9,25.6,0000.0,0005.36,0012.66,0004.74
2023-07-03 04:42:00,SystemResetWarning,0833.2,5.00,000.00,029.2,028.1,000.0,037.6,030.9,25.3,0000.0,0005.33,0012.59,0004.75
2023-07-03 04:43:00,SystemResetWarning,0833.1,5.00,000.00,029.3,028.0,000.0,037.6,031.0,24.9,0000.0,0005.27,0011.56,0004.74
2023-07-03 04:44:00,SystemResetWarning,0833.1,4.99,000.00,029.3,026.4,000.0,037.5,030.8,24.9,0000.0,0005.21,0011.56,0004.73
2023-07-03 04:45:00,SystemResetWarning,0833.1,5.00,000.00,029.2,025.3,000.0,037.4,030.6,24.7,0000.0,0005.18,0010.91,0004.72
2023-07-03 04:46:00,SystemResetWarning,0833.1,5.01,000.00,029.1,025.4,000.0,037.4,030.4,24.8,0000.0,0005.19,0010.70,0004.71
2023-07-03 04:47:00,SystemResetWarning,0833.1,5.02,000.00,029.0,025.7,000.0,037.5,030.4,25.4,0000.0,0005.16,0010.26,0004.70
2023-07-03 04:48:00,SystemResetWarning,0833.1,4.99,000.00,029.0,026.1,000.0,037.5,030.4,25.8,0000.0,0005.15,0010.24,0004.68
2023-07-03 04:49:00,SystemResetWarning,0833.2,4.99,000.00,029.0,026.5,000.0,037.5,030.5,25.6,0000.0,0005.13,0010.14,0004.66
2023-07-03 04:50:00,SystemResetWarning,0833.2,5.02,000.00,029.0,026.8,000.0,037.5,030.6,25.9,0000.0,0005.12,0009.94,0004.66
2023-07-03 04:51:00,SystemResetWarning,0833.1,5.00,000.00,029.1,027.1,000.0,037.5,030.6,26.1,0000.0,0005.09,0009.63,0004.65
2023-07-03 04:52:00,SystemResetWarning,0833.2,4.99,000.00,029.1,027.4,000.0,037.5,030.7,26.2,0000.0,0005.07,0009.31,0004.63
2023-07-03 04:53:00,SystemResetWarning,0833.1,4.99,000.00,029.1,027.6,000.0,037.6,030.7,25.8,0000.0,0005.11,0009.45,0004.63
2023-07-03 04:54:00,SystemResetWarning,0833.2,5.00,000.00,029.1,027.7,000.0,037.6,030.8,26.0,0000.0,0005.14,0010.08,0004.65
2023-07-03 04:55:00,SystemResetWarning,0833.2,5.01,000.00,029.2,027.9,000.0,037.6,030.8,26.3,0000.0,0005.14,0009.36,0004.65
2023-07-03 04:56:00,SystemResetWarning,0833.2,5.01,000.00,029.2,028.0,000.0,037.6,030.9,25.4,0000.6,0005.15,0009.34,0004.66
2023-07-03 04:57:00,SystemResetWarning,0833.2,4.99,000.00,029.3,028.1,000.0,037.7,030.9,25.2,0000.4,0005.17,0009.49,0004.67
2023-07-03 04:58:00,SystemResetWarning,0833.2,4.99,000.00,029.3,028.2,000.0,037.7,031.0,25.7,0000.0,0005.20,0009.79,0004.68
2023-07-03 04:59:00,SystemResetWarning,0833.2,4.99,000.00,029.3,028.1,000.0,037.7,031.0,25.3,0000.9,0005.24,0009.93,0004.69
